Flag for Germany Weather past 2 weeks in Pfaffenhofen an der Ilm, Bavaria, Germany

Now
61 °F

Fog.


Feels Like: 61 °F
Forecast: 61 / 71 °F
Wind: 3 mph from North

Location: Ingolstadt Airport

Current Time: Jul 28, 2014 at 8:43:23 AM

Latest Report: Jul 28, 2014 at 7:20 AM


Visibility: 0 mi

Pressure: 29.95 "Hg

Humidity: 100%

Dew point: 61 °F

Location of Pfaffenhofen an der IlmLocation

Historic Weather in Pfaffenhofen an der Ilm — Graph

°F

Pfaffenhofen an der Ilm temperature yesterday

Maximum temperature yesterday: 77 °F (at 2:20 PM)
Minimum temperature yesterday: 61 °F (at 5:20 AM)
Average temperature yesterday: 66 °F

Past Weeks' High & Low Weather Summary

 TemperatureHumidityPressure
High90 °F (Jul 19, 4:20 PM)100% (Jul 14, 5:20 AM)30.18 "Hg (Jul 14, 5:20 AM)
Low55 °F (Jul 23, 5:20 AM)24% (Jul 19, 4:20 PM)29.80 "Hg (Jul 20, 6:20 PM)
Average70 °F69%29.98 "Hg
* Reported Jul 13 7:20 AM — Jul 28 7:20 AM, Pfaffenhofen an der Ilm, Weather by CustomWeather, © 2014

Note: Actual official high and low records may vary slightly from our data, if they occured in-between our weather recording intervals... More about our weather records

Advertising

Pfaffenhofen an der Ilm weather history for previous 24 hours

 ConditionsComfort  
Time TempWeatherWind HumidityBarometerVisibility
7:20 AM
Jul 28
61 °FFog.3 mph100%29.95 "Hg0 mi
6:20 AM61 °FFog.2 mph100%29.95 "Hg0 mi
5:55 AM61 °FFog.2 mph100%29.95 "Hg1 mi
5:20 AM61 °FFog.No wind100%29.95 "Hg1 mi
4:20 AM63 °FMild.3 mph94%29.95 "Hg2 mi
3:20 AM63 °FMild.3 mph94%29.98 "Hg1 mi
2:20 AM59 °FCool.3 mph100%29.98 "Hg0 mi
1:20 AM61 °FCool.1 mph94%30.01 "Hg0 mi
12:20 AM63 °FMild.6 mph94%30.01 "Hg2 mi
11:20 PM
Jul 27
63 °FMild.5 mph94%30.01 "Hg2 mi
10:20 PM63 °FMild.5 mph100%30.01 "Hg2 mi
9:20 PM63 °FMild.5 mph100%30.01 "Hg2 mi
8:20 PM64 °FMild.5 mph94%29.98 "Hg2 mi
7:20 PM64 °FMild.6 mph94%29.98 "Hg2 mi
6:20 PM66 °FMild.6 mph94%29.95 "Hg2 mi
5:20 PM64 °FMild.1 mph94%29.95 "Hg2 mi
4:20 PM66 °FMild.9 mph78%29.95 "Hg1 mi
3:20 PM77 °FWarm.5 mph61%29.95 "Hg3 mi
2:20 PM77 °FWarm.5 mph61%29.95 "Hg3 mi
1:20 PM75 °FMild.5 mph65%29.98 "Hg3 mi
12:20 PM75 °FMild.5 mph61%29.98 "Hg3 mi
11:20 AM72 °FMild.5 mph69%29.98 "Hg3 mi
10:20 AM72 °FMild.3 mph69%29.98 "Hg3 mi
9:20 AM68 °FMild.7 mph78%29.98 "Hg3 mi
8:20 AM66 °FMild.8 mph83%29.95 "Hg3 mi
Weather by CustomWeather, © 2014

See weather overviewHow to use our weather pages